Regional Weather Roundup
Issued by NWS Upton, NY

Current Version | Previous Version | Text Only | Print | Product List | Glossary On
Versions: 1 2 3 4 5 6 7 8 9 10 11 12 13 14 15 16 17 18 19 20 21 22 23 24 25 26 27 28 29 30 31 32 33 34 35 36 37 38 39 40 41 42 43 44 45 46 47 48 49 50
000 ASUS41 KOKX 180405 RWROKX REGIONAL WEATHER ROUNDUP NATIONAL WEATHER SERVICE NEW YORK NY 1200 AM EDT THU SEP 18 2014 NOTE: "FAIR" INDICATES FEW OR NO CLOUDS BELOW 12,000 FEET WITH NO SIGNIFICANT WEATHER AND/OR OBSTRUCTIONS TO VISIBILITY. NYZ071-072-176-178-NJZ106-104-180500- NEW YORK CITY METRO AREA CITY SKY/WX TMP DP RH WIND PRES REMARKS CENTRAL PARK CLEAR 63 50 62 W3 30.01S LAGUARDIA APRT CLEAR 64 53 67 SW7 29.97F KENNEDY INTL PTCLDY 61 52 72 SW7 29.99S NEWARK/LIBERTY CLEAR 60 52 74 W3 29.98S BRNX BOT. GARD N/A 57 52 82 NE1 29.99S TETERBORO CLEAR 61 48 62 CALM 29.97F $$ NYZ177-179-078>081-180500- LONG ISLAND NEW YORK CITY SKY/WX TMP DP RH WIND PRES REMARKS FARMINGDALE CLEAR 58 51 78 CALM 29.99S ISLIP CLEAR 54 48 80 CALM 29.97F SHIRLEY CLEAR 50 47 89 CALM 29.99S WESTHAMPTON CLEAR 45 41 86 CALM 30.00S MONTAUK POINT N/A 55 48 77 CALM 29.99F $$ NYZ052-065-067-180500- HUDSON VALLEY CITY SKY/WX TMP DP RH WIND PRES REMARKS WHITE PLAINS CLEAR 53 49 86 CALM 29.98F NEWBURGH PTCLDY 50 48 93 CALM 29.99F MONTGOMERY CLEAR 47 44 90 CALM 29.98F POUGHKEEPSIE CLEAR 48 46 93 N5 29.98S ALBANY CLEAR 49 46 90 CALM 29.98S $$ NJZ001-105-106-008-010-013-015-019>022-104-180500- NEW JERSEY CITY SKY/WX TMP DP RH WIND PRES REMARKS NEWARK/LIBERTY CLEAR 60 52 74 W3 29.98S TETERBORO CLEAR 61 48 62 CALM 29.97F CALDWELL CLEAR 52 46 80 CALM 29.99F MORRISTOWN CLEAR 48 45 87 CALM 29.99S SOMERVILLE CLEAR 50 47 89 CALM 29.98S LINDEN FAIR 64 55 74 CALM 30.00S SUSSEX CLEAR 48 45 89 CALM 30.00S ANDOVER N/A 47 46 97 CALM 30.00S TRENTON CLEAR 55 51 86 CALM 29.99S MILLVILLE CLEAR 52 49 89 CALM 29.98F ATLANTIC CITY CLEAR 54 52 93 N3 29.98F WRIGHTSTOWN CLEAR 54 51 90 VRB3 29.96F TOMS RIVER CLEAR 48 46 93 CALM 29.99S BELMAR CLEAR 59 48 67 SW3 29.98F $$ PAZ047>061-062-071-180500- EASTERN PENNSYLVANIA CITY SKY/WX TMP DP RH WIND PRES REMARKS PHILADELPHIA PTCLDY 63 52 67 SW3 29.99S ALLENTOWN CLEAR 50 46 86 CALM 29.99S SCRANTON CLEAR 50 43 77 E7 30.00S $$ CTZ002-004>006-009-010-012-RIZ004-006-007-MAZ004-011-015-180500- SOUTHERN NEW ENGLAND IN CT CITY SKY/WX TMP DP RH WIND PRES REMARKS BRADLEY INTL PTCLDY 51 47 86 VRB3 29.97F HARTFORD CLEAR 51 49 92 SE9 29.98S DANBURY CLEAR 47 45 93 SW5 30.00F WTRBRY/OXFORD CLEAR 46 41 81 CALM 29.99F BRIDGEPORT CLEAR 56 49 77 CALM 29.98F MERIDEN CLEAR 46 44 93 CALM 29.98F NEW HAVEN CLEAR 51 46 83 CALM 29.98F CHESTER FAIR 50 46 87 CALM 29.99F GROTON CLEAR 50 49 96 NE3 29.97F WILLIMANTIC CLEAR 49 46 90 N3 29.99F IN RI CITY SKY/WX TMP DP RH WIND PRES REMARKS PROVIDENCE PTCLDY 55 47 74 W5 29.98F BLOCK ISLAND CLEAR 57 50 77 CALM 29.98S WESTERLY CLEAR 49 47 93 CALM 29.98F IN MA CITY SKY/WX TMP DP RH WIND PRES REMARKS BOSTON CLEAR 58 48 69 SW5 29.96F WORCESTER CLEAR 52 44 74 W7 29.98F WESTFIELD CLEAR 47 45 93 CALM 29.98S FOG PROVINCETOWN CLEAR 57 50 77 SW3 29.96F NANTUCKET CLEAR 58 46 64 W6 29.97F $$ ANZ330-335-338-340-345-350-353-355-180500- COASTAL MARINE OBSERVATIONS STATION/POSITION TIME SKY/WX TEMP WIND PRES VSBY WAVE AIR SEA DIR/SP/G HT/PER (UTC) (F) (DEG/KT/KT) (MB) (MI) (FT/S) NY HARB ENTRANCE 0400 67 71 210/ 6/ 8 1015.6 3/15 4S FIRE IS 0400 70 N/A 4/13 23SW MTP 0400 N/A 4/14 HUDSON CANYON 0400 66 74 20/ 8/ 12 1014.9 5/11 EXECUTION ROCKS 0400 65 71 200/ 8/ 10 N/A WESTERN LI SOUND 0400 65 200/ 8/ 8 N/A 0 CENTRAL LI SOUND 0300 67 71 230/ 8/ 12 N/A 1 EASTERN LI SOUND 0300 63 68 10/ 4/ 4 N/A ROBBINS REEF 0400 63 260/ 9/ 11 1013.9 $$ >>>>>>>>>>>>>>>>>>>>>>>>>>>> KEY <<<<<<<<<<<<<<<<<<<<<<<<<<< > < > SKY/WX - SKY CONDITION/PRESENT WEATHER < > TMP - TEMPERATURE IN FAHRENHEIT < > DP - DEWPOINT IN FAHRENHEIT < > RH - RELATIVE HUMIDITY IN PERCENT < > WIND - DIRECTION AND SPEED IN MPH < > PRES - MEAN SEA LEVEL PRESSURE IN INCHES OF HG < > WCI - WIND CHILL INDEX < > VSB - VISIBILITY IN MILES < > HX - HEAT INDEX < > TC - TEMPERATURE IN CELSIUS < > VRB - VARIABLE WIND DIRECTION < > < >>>>>>>>>>>>>>>>>>>>>>>>>>>> KEY <<<<<<<<<<<<<<<<<<<<<<<<<<<

USA.gov is the U.S. government's official web portal to all federal, state and local government web resources and services.